Time,TemperatureF,DewpointF,PressureIn,WindDirection,WindDirectionDegrees,WindSpeedMPH,WindSpeedGustMPH,Humidity,HourlyPrecipIn,Conditions,Clouds,dailyrainin,SolarRadiationWatts/m^2,SoftwareType,DateUTC
2013-04-20 00:03:00,42.0,38.0,29.83,NE,37,3.0,3.0,86,0.00,,,1.46,0.000000,,2013-04-20 04:03:00,
2013-04-20 00:10:00,42.0,37.0,29.83,NNW,340,4.0,4.0,81,0.00,,,1.46,0.000000,,2013-04-20 04:10:00,
2013-04-20 00:43:00,42.0,37.0,29.83,NNW,340,4.0,4.0,81,0.00,,,1.46,0.000000,,2013-04-20 04:43:00,
2013-04-20 00:53:00,42.0,37.0,29.83,NNW,340,4.0,4.0,81,0.00,,,1.46,0.000000,,2013-04-20 04:53:00,
2013-04-20 01:02:00,42.0,37.0,29.83,NNW,340,4.0,4.0,81,0.00,,,1.46,0.000000,,2013-04-20 05:02:00,
2013-04-20 01:10:00,39.0,32.0,29.85,North,1,4.0,4.0,76,0.00,,,1.44,0.000000,,2013-04-20 05:10:00,
2013-04-20 01:32:00,39.0,32.0,29.85,North,1,4.0,4.0,76,0.00,,,1.44,0.000000,,2013-04-20 05:32:00,
2013-04-20 01:43:00,39.0,32.0,29.85,North,1,4.0,4.0,76,0.00,,,1.44,0.000000,,2013-04-20 05:43:00,
2013-04-20 01:52:00,39.0,32.0,29.85,North,1,4.0,4.0,76,0.00,,,1.44,0.000000,,2013-04-20 05:52:00,
2013-04-20 02:02:00,39.0,32.0,29.85,North,1,4.0,4.0,76,0.00,,,1.44,0.000000,,2013-04-20 06:02:00,
2013-04-20 02:10:00,39.0,31.0,29.85,SSE,158,4.0,4.0,73,0.00,,,1.44,0.000000,,2013-04-20 06:10:00,
2013-04-20 02:42:00,39.0,31.0,29.85,SSE,158,4.0,4.0,73,0.00,,,1.44,0.000000,,2013-04-20 06:42:00,
2013-04-20 02:52:00,39.0,31.0,29.85,SSE,158,4.0,4.0,73,0.00,,,1.44,0.000000,,2013-04-20 06:52:00,
2013-04-20 03:02:00,39.0,31.0,29.85,SSE,158,4.0,4.0,73,0.00,,,1.44,0.000000,,2013-04-20 07:02:00,
2013-04-20 03:10:00,38.0,30.0,29.84,SSW,196,4.0,4.0,73,0.00,,,-99.99,0.000000,,2013-04-20 07:10:00,
2013-04-20 03:42:00,38.0,30.0,29.84,SSW,196,4.0,4.0,73,0.00,,,-99.99,0.000000,,2013-04-20 07:42:00,
2013-04-20 03:52:00,38.0,30.0,29.84,SSW,196,4.0,4.0,73,0.00,,,-99.99,0.000000,,2013-04-20 07:52:00,
2013-04-20 04:02:00,38.0,30.0,29.84,SSW,196,4.0,4.0,73,0.00,,,-99.99,0.000000,,2013-04-20 08:02:00,
2013-04-20 04:10:00,37.0,28.0,29.86,North,9,5.0,5.0,69,0.00,,,1.44,0.000000,,2013-04-20 08:10:00,
2013-04-20 04:42:00,37.0,28.0,29.86,North,9,5.0,5.0,69,0.00,,,1.44,0.000000,,2013-04-20 08:42:00,
2013-04-20 04:52:00,37.0,28.0,29.86,North,9,5.0,5.0,69,0.00,,,1.44,0.000000,,2013-04-20 08:52:00,
2013-04-20 05:02:00,37.0,28.0,29.86,North,9,5.0,5.0,69,0.00,,,1.44,0.000000,,2013-04-20 09:02:00,
2013-04-20 05:10:00,35.0,26.0,29.88,ENE,66,5.0,5.0,69,0.00,,,1.44,0.000000,,2013-04-20 09:10:00,
2013-04-20 05:33:00,35.0,26.0,29.88,ENE,66,5.0,5.0,69,0.00,,,1.44,0.000000,,2013-04-20 09:33:00,
2013-04-20 05:43:00,35.0,26.0,29.88,ENE,66,5.0,5.0,69,0.00,,,1.44,0.000000,,2013-04-20 09:43:00,
2013-04-20 05:53:00,35.0,26.0,29.88,ENE,66,5.0,5.0,69,0.00,,,1.44,0.000000,,2013-04-20 09:53:00,
2013-04-20 06:03:00,35.0,26.0,29.88,ENE,66,5.0,5.0,69,0.00,,,1.44,0.000000,,2013-04-20 10:03:00,
2013-04-20 06:10:00,35.0,23.0,29.89,SSW,207,7.0,7.0,61,0.00,,,1.44,0.000000,,2013-04-20 10:10:00,
2013-04-20 06:42:00,35.0,23.0,29.89,SSW,207,7.0,7.0,61,0.00,,,1.44,0.000000,,2013-04-20 10:42:00,
2013-04-20 06:53:00,35.0,23.0,29.89,SSW,207,7.0,7.0,61,0.00,,,1.44,0.000000,,2013-04-20 10:53:00,
2013-04-20 07:02:00,35.0,23.0,29.89,SSW,207,7.0,7.0,61,0.00,,,1.44,0.000000,,2013-04-20 11:02:00,
2013-04-20 07:10:00,34.0,22.0,29.93,East,79,5.0,5.0,60,0.00,,,1.44,0.000000,,2013-04-20 11:10:00,
2013-04-20 07:42:00,34.0,22.0,29.93,East,79,5.0,5.0,60,0.00,,,1.44,0.000000,,2013-04-20 11:42:00,
2013-04-20 07:53:00,34.0,22.0,29.93,East,79,5.0,5.0,60,0.00,,,1.44,0.000000,,2013-04-20 11:53:00,
2013-04-20 08:02:00,34.0,22.0,29.93,East,79,5.0,5.0,60,0.00,,,1.44,0.000000,,2013-04-20 12:02:00,
2013-04-20 08:10:00,38.0,22.0,29.97,SSW,193,5.0,6.0,51,0.00,,,1.41,1.000000,,2013-04-20 12:10:00,
2013-04-20 08:32:00,38.0,22.0,29.97,SSW,193,5.0,6.0,51,0.00,,,1.41,1.000000,,2013-04-20 12:32:00,
2013-04-20 08:42:00,38.0,22.0,29.97,SSW,193,5.0,6.0,51,0.00,,,1.41,1.000000,,2013-04-20 12:42:00,
2013-04-20 08:52:00,38.0,22.0,29.97,SSW,193,5.0,6.0,51,0.00,,,1.41,1.000000,,2013-04-20 12:52:00,
2013-04-20 09:02:00,38.0,22.0,29.97,SSW,193,5.0,6.0,51,0.00,,,1.41,1.000000,,2013-04-20 13:02:00,
2013-04-20 09:10:00,41.0,21.0,30.00,North,355,7.0,7.0,45,0.00,,,1.32,129.000000,,2013-04-20 13:10:00,
2013-04-20 09:32:00,41.0,21.0,30.00,North,355,7.0,7.0,45,0.00,,,1.32,129.000000,,2013-04-20 13:32:00,
2013-04-20 09:42:00,41.0,21.0,30.00,North,355,7.0,7.0,45,0.00,,,1.32,129.000000,,2013-04-20 13:42:00,
2013-04-20 09:52:00,41.0,21.0,30.00,North,355,7.0,7.0,45,0.00,,,1.32,129.000000,,2013-04-20 13:52:00,
2013-04-20 10:02:00,41.0,21.0,30.00,North,355,7.0,7.0,45,0.00,,,1.32,129.000000,,2013-04-20 14:02:00,
2013-04-20 10:10:00,46.0,24.0,30.01,SE,131,6.0,6.0,41,0.00,,,1.29,392.000000,,2013-04-20 14:10:00,
2013-04-20 10:32:00,46.0,24.0,30.01,SE,131,6.0,6.0,41,0.00,,,1.29,392.000000,,2013-04-20 14:32:00,
2013-04-20 10:42:00,46.0,24.0,30.01,SE,131,6.0,6.0,41,0.00,,,1.29,392.000000,,2013-04-20 14:42:00,
2013-04-20 10:52:00,46.0,24.0,30.01,SE,131,6.0,6.0,41,0.00,,,1.29,392.000000,,2013-04-20 14:52:00,
2013-04-20 11:02:00,46.0,24.0,30.01,SE,131,6.0,6.0,41,0.00,,,1.29,392.000000,,2013-04-20 15:02:00,
2013-04-20 11:10:00,48.0,25.0,30.04,NE,35,5.0,6.0,40,0.00,,,1.28,642.000000,,2013-04-20 15:10:00,
2013-04-20 11:34:00,48.0,25.0,30.04,NE,35,5.0,6.0,40,0.00,,,1.28,642.000000,,2013-04-20 15:34:00,
2013-04-20 11:43:00,48.0,25.0,30.04,NE,35,5.0,6.0,40,0.00,,,1.28,642.000000,,2013-04-20 15:43:00,
2013-04-20 11:53:00,48.0,25.0,30.04,NE,35,5.0,6.0,40,0.00,,,1.28,642.000000,,2013-04-20 15:53:00,
2013-04-20 12:03:00,48.0,25.0,30.04,NE,35,5.0,6.0,40,0.00,,,1.28,642.000000,,2013-04-20 16:03:00,
2013-04-20 12:10:00,50.0,25.0,30.05,ENE,64,5.0,5.0,38,0.00,,,1.24,868.000000,,2013-04-20 16:10:00,
2013-04-20 12:42:00,50.0,25.0,30.05,ENE,64,5.0,5.0,38,0.00,,,1.24,868.000000,,2013-04-20 16:42:00,
2013-04-20 12:53:00,50.0,25.0,30.05,ENE,64,5.0,5.0,38,0.00,,,1.24,868.000000,,2013-04-20 16:53:00,
2013-04-20 13:02:00,50.0,25.0,30.05,ENE,64,5.0,5.0,38,0.00,,,1.24,868.000000,,2013-04-20 17:02:00,
2013-04-20 13:10:00,54.0,27.0,30.04,SW,233,5.0,5.0,35,0.00,,,0.98,1043.000000,,2013-04-20 17:10:00,
2013-04-20 13:33:00,54.0,27.0,30.04,SW,233,5.0,5.0,35,0.00,,,0.98,1043.000000,,2013-04-20 17:33:00,
2013-04-20 13:42:00,54.0,27.0,30.04,SW,233,5.0,5.0,35,0.00,,,0.98,1043.000000,,2013-04-20 17:42:00,
2013-04-20 13:52:00,54.0,27.0,30.04,SW,233,5.0,5.0,35,0.00,,,0.98,1043.000000,,2013-04-20 17:52:00,
2013-04-20 14:02:00,54.0,27.0,30.04,SW,233,5.0,5.0,35,0.00,,,0.98,1043.000000,,2013-04-20 18:02:00,
2013-04-20 14:10:00,54.0,27.0,30.04,East,80,6.0,6.0,35,0.00,,,0.36,1153.000000,,2013-04-20 18:10:00,
2013-04-20 14:32:00,54.0,27.0,30.04,East,80,6.0,6.0,35,0.00,,,0.36,1153.000000,,2013-04-20 18:32:00,
2013-04-20 14:42:00,54.0,27.0,30.04,East,80,6.0,6.0,35,0.00,,,0.36,1153.000000,,2013-04-20 18:42:00,
2013-04-20 14:53:00,54.0,27.0,30.04,East,80,6.0,6.0,35,0.00,,,0.36,1153.000000,,2013-04-20 18:53:00,
2013-04-20 15:02:00,54.0,27.0,30.04,East,80,6.0,6.0,35,0.00,,,0.36,1153.000000,,2013-04-20 19:02:00,
2013-04-20 15:10:00,57.0,23.0,30.04,NNW,335,4.0,5.0,27,0.00,,,0.18,1182.000000,,2013-04-20 19:10:00,
2013-04-20 15:32:00,57.0,23.0,30.04,NNW,335,4.0,5.0,27,0.00,,,0.18,1182.000000,,2013-04-20 19:32:00,
2013-04-20 15:42:00,57.0,23.0,30.04,NNW,335,4.0,5.0,27,0.00,,,0.18,1182.000000,,2013-04-20 19:42:00,
2013-04-20 15:52:00,57.0,23.0,30.04,NNW,335,4.0,5.0,27,0.00,,,0.18,1182.000000,,2013-04-20 19:52:00,
2013-04-20 16:02:00,57.0,23.0,30.04,NNW,335,4.0,5.0,27,0.00,,,0.18,1182.000000,,2013-04-20 20:02:00,
2013-04-20 16:10:00,59.0,25.0,30.02,NNE,18,4.0,5.0,27,0.00,,,0.01,991.000000,,2013-04-20 20:10:00,
2013-04-20 16:32:00,59.0,25.0,30.02,NNE,18,4.0,5.0,27,0.00,,,0.01,991.000000,,2013-04-20 20:32:00,
2013-04-20 16:42:00,59.0,25.0,30.02,NNE,18,4.0,5.0,27,0.00,,,0.01,991.000000,,2013-04-20 20:42:00,
2013-04-20 16:52:00,59.0,25.0,30.02,NNE,18,4.0,5.0,27,0.00,,,0.01,991.000000,,2013-04-20 20:52:00,
2013-04-20 17:02:00,59.0,25.0,30.02,NNE,18,4.0,5.0,27,0.00,,,0.01,991.000000,,2013-04-20 21:02:00,
2013-04-20 17:10:00,59.0,27.0,30.03,NE,47,5.0,5.0,29,0.00,,,-99.99,970.000000,,2013-04-20 21:10:00,
2013-04-20 17:43:00,59.0,27.0,30.03,NE,47,5.0,5.0,29,0.00,,,-99.99,970.000000,,2013-04-20 21:43:00,
2013-04-20 17:53:00,59.0,27.0,30.03,NE,47,5.0,5.0,29,0.00,,,-99.99,970.000000,,2013-04-20 21:53:00,
2013-04-20 18:03:00,59.0,27.0,30.03,NE,47,5.0,5.0,29,0.00,,,-99.99,970.000000,,2013-04-20 22:03:00,
2013-04-20 18:10:00,58.0,27.0,30.04,NE,39,5.0,5.0,30,0.00,,,0.00,820.000000,,2013-04-20 22:10:00,
2013-04-20 18:33:00,58.0,27.0,30.04,NE,39,5.0,5.0,30,0.00,,,0.00,820.000000,,2013-04-20 22:33:00,
2013-04-20 18:42:00,58.0,27.0,30.04,NE,39,5.0,5.0,30,0.00,,,0.00,820.000000,,2013-04-20 22:42:00,
2013-04-20 18:53:00,58.0,27.0,30.04,NE,39,5.0,5.0,30,0.00,,,0.00,820.000000,,2013-04-20 22:53:00,
2013-04-20 19:02:00,58.0,27.0,30.04,NE,39,5.0,5.0,30,0.00,,,0.00,820.000000,,2013-04-20 23:02:00,
2013-04-20 19:10:00,53.0,24.0,30.06,NE,53,6.0,6.0,32,0.00,,,0.00,579.000000,,2013-04-20 23:10:00,
2013-04-20 19:32:00,53.0,24.0,30.06,NE,53,6.0,6.0,32,0.00,,,0.00,579.000000,,2013-04-20 23:32:00,
2013-04-20 19:42:00,53.0,24.0,30.06,NE,53,6.0,6.0,32,0.00,,,0.00,579.000000,,2013-04-20 23:42:00,
2013-04-20 19:53:00,53.0,24.0,30.06,NE,53,6.0,6.0,32,0.00,,,0.00,579.000000,,2013-04-20 23:53:00,
2013-04-20 20:01:00,53.0,24.0,30.06,NE,53,6.0,6.0,32,0.00,,,0.00,579.000000,,2013-04-21 00:01:00,
2013-04-20 21:10:00,47.0,27.0,30.13,NE,47,5.0,5.0,46,-99.99,,,0.00,30.000000,,2013-04-21 01:10:00,
2013-04-20 21:32:00,47.0,27.0,30.13,NE,47,5.0,5.0,46,-99.99,,,0.00,30.000000,,2013-04-21 01:32:00,
2013-04-20 21:42:00,47.0,27.0,30.13,NE,47,5.0,5.0,46,-99.99,,,0.00,30.000000,,2013-04-21 01:42:00,
2013-04-20 21:52:00,47.0,27.0,30.13,NE,47,5.0,5.0,46,-99.99,,,0.00,30.000000,,2013-04-21 01:52:00,
2013-04-20 22:02:00,47.0,27.0,30.13,NE,47,5.0,5.0,46,-99.99,,,0.00,30.000000,,2013-04-21 02:02:00,
2013-04-20 22:10:00,45.0,29.0,30.16,NNE,27,3.0,5.0,54,0.00,,,0.00,0.000000,,2013-04-21 02:10:00,
2013-04-20 22:32:00,45.0,29.0,30.16,NNE,27,3.0,5.0,54,0.00,,,0.00,0.000000,,2013-04-21 02:32:00,
2013-04-20 22:42:00,45.0,29.0,30.16,NNE,27,3.0,5.0,54,0.00,,,0.00,0.000000,,2013-04-21 02:42:00,
2013-04-20 22:52:00,45.0,29.0,30.16,NNE,27,3.0,5.0,54,0.00,,,0.00,0.000000,,2013-04-21 02:52:00,
2013-04-20 23:02:00,45.0,29.0,30.16,NNE,27,3.0,5.0,54,0.00,,,0.00,0.000000,,2013-04-21 03:02:00,
2013-04-20 23:10:00,42.0,29.0,30.16,NW,326,2.0,4.0,60,0.00,,,0.00,0.000000,,2013-04-21 03:10:00,
2013-04-20 23:33:00,42.0,29.0,30.16,NW,326,2.0,4.0,60,0.00,,,0.00,0.000000,,2013-04-21 03:33:00,
2013-04-20 23:42:00,42.0,29.0,30.16,NW,326,2.0,4.0,60,0.00,,,0.00,0.000000,,2013-04-21 03:42:00,
2013-04-20 23:53:00,42.0,29.0,30.16,NW,326,2.0,4.0,60,0.00,,,0.00,0.000000,,2013-04-21 03:53:00,